Regional Weather Roundup
Issued by NWS Cleveland, OH

Home | Current Version | Previous Version | Graphics & Text | Print | Product List | Glossary On
Versions: 1 2 3 4 5 6 7 8 9 10 11 12 13 14 15 16 17 18 19 20 21 22 23 24 25 26 27 28 29 30 31 32 33 34 35 36 37 38 39 40 41 42 43 44 45 46 47 48 49 50
470
ASUS41 KCLE 232312
RWRCLE
OHIO REGIONAL WEATHER ROUNDUP
NATIONAL WEATHER SERVICE WILMINGTON, OH
700 PM EDT THU MAR 23 2017

NOTE: "FAIR" INDICATES FEW OR NO CLOUDS BELOW 12,000 FEET WITH NO
SIGNIFICANT WEATHER AND/OR OBSTRUCTIONS TO VISIBILITY.

OHZ001>008-015>018-024>027-034-035-043-044-240000-
   NORTHWEST OHIO

CITY           SKY/WX    TMP DP  RH WIND       PRES   REMARKS
DEFIANCE       MOCLDY    48  15  26 SE7       30.26F
FINDLAY        MOCLDY    51  13  21 SE12      30.25F
TOLEDO EXPRESS FAIR      44  26  49 E12       30.26F
TOLEDO EXEC    MOCLDY    41  29  62 E10       30.29F
LIMA           FAIR      50  23  34 S14       30.26F
$$

OHZ009>014-019>023-028>033-038-089-240000-
   NORTHEAST OHIO

CITY           SKY/WX    TMP DP  RH WIND       PRES   REMARKS
CLE-HOPKINS    MOCLDY    49   9  19 S12       30.34F
CLE-LAKEFRONT  FAIR      49   9  19 S12       30.31F
CUY CO. ARPT   PTCLDY    48  10  21 S14       30.33F
LORAIN-ELYRIA  FAIR      47  11  23 S12       30.31F
ASHTABULA      FAIR      45  10  24 S10       30.35S
AKRON-CANTON   FAIR      47  11  23 S12       30.32F
WOOSTER        FAIR      46  16  30 SE9       30.32F
MANSFIELD      FAIR      48   9  20 SE9       30.30R
YOUNGSTOWN     FAIR      46   7  20 SE7       30.35S
$$

OHZ042-051>053-060>062-070>072-077>081-240000-
  SOUTHWEST OHIO

CITY           SKY/WX    TMP DP  RH WIND       PRES   REMARKS
CINC-COVINGTON FAIR      58  29  33 S10       30.25S
CINC-LUNKEN    FAIR      60  28  29 SE10      30.26F
HAMILTON       FAIR      59  24  26 S6        30.27S
DAYTON         MOCLDY    53  23  31 S9        30.27S
WRIGHT-PAT AFB MOCLDY    56  20  25 S10       30.27S
DAYTON GENERAL FAIR      54  24  31 S8        30.25F
WILMINGTON     CLOUDY    56  28  34 S9        30.26F
$$

OHZ036-037-039>041-045>050-054>059-063>069-073>076-082>088-240000-
  CENTRAL AND SOUTHEAST OHIO

CITY           SKY/WX    TMP DP  RH WIND       PRES   REMARKS
COLUMBUS       MOCLDY    56  13  18 SE8       30.29F
OSU AIRPORT    FAIR      54  15  21 S12       30.29S
BOLTON FIELD   CLEAR     54  21  28 S9G16     30.29F
RICKENBACK AFB FAIR      55  19  24 S6        30.28F
NEWARK         FAIR      54  14  20 SE6       30.30F
MARION         FAIR      50  13  22 S10       30.29F
LANCASTER      FAIR      57  17  21 SE9       30.30F
ZANESVILLE     FAIR      53  13  20 SE8       30.32S
NEW PHILLY     FAIR      51   8  17 SE6       30.33F
$$




USA.gov is the U.S. government's official web portal to all federal, state and local government web resources and services.